[[{"header":{"parameterUnit":"m.s-1","parameterCategory":1,"la1":30.2991,"la2":30.254,"lo1":-89.0895,"lo2":-89.0444,"dy":0.0017,"dx":0.0017,"nx":28,"ny":28,"refTime":"2025-03-12T09:00:00:Z","depth":0,"parameterNumber":2,"parameterNumberName":"U-component_of_WINDS"},"data":[0,0,0,0,0,0,0,0,0,0,0,0,0,0,0,0,0,0,0,0,0,0,0,0,0,0,0,0,0,0,0,0,0,0,0,0,0,0,0,0,0,0,0,0,0,0,0,0,0,0,0,0,0,0,0,0,0,0,0.1073,0.1073,0,0.1078,0.1078,0.1078,0.107,0.1069,0.1069,0.1069,0.1077,0.1078,0.1078,0,0,0,0,0,0,0,0,0,0,0,0,0,0.1058,0.1058,0.1073,0.1073,0.1073,0.1078,0.1078,0.1078,0.107,0.1069,0.1069,0.1069,0.1077,0.1078,0.1078,0,0,0,0,0,0,0,0,0,0,0,0,0,0.1064,0.1059,0.1073,0.1069,0.1069,0.1078,0.1078,0.1078,0.107,0.1069,0.1069,0.1068,0.1077,0.1078,0.1078,0.1092,0,0,0.1081,0.1081,0,0,0,0,0,0,0,0,0.1064,0.1065,0.107,0.107,0.1069,0.1072,0.1076,0.1083,0.107,0.107,0.1069,0.1068,0.1076,0.1077,0.1079,0.1092,0.1092,0.1081,0.1081,0.1081,0.1082,0,0,0,0,0,0,0,0.1063,0.1064,0.1075,0.107,0.107,0.1068,0.1068,0.1077,0.1075,0.107,0.1069,0.1069,0.1076,0.1078,0.1079,0.1092,0.1081,0.1081,0.1082,0.1082,0.1115,0.1115,0,0,0,0,0,0,0.1063,0.1064,0.1075,0.1075,0.1065,0.1069,0.1069,0.1072,0.1075,0.1075,0.107,0.1069,0.1077,0.1078,0.1079,0.1094,0.1081,0.1082,0.1083,0.1114,0.1115,0.1115,0,0,0,0,0,0,0.1063,0.1064,0.1074,0.1069,0.107,0.1069,0.1073,0.1072,0.1074,0.1075,0.1075,0.1072,0.1077,0.1078,0.1088,0.1094,0.1082,0.1083,0.1114,0.1114,0.1115,0.1124,0,0,0,0,0,0,0.1062,0.1064,0.1069,0.1069,0.1071,0.1082,0.1073,0.1073,0.1075,0.1074,0.1078,0.1078,0.1077,0.1087,0.1089,0.1095,0.1084,0.1113,0.1114,0.1115,0.1123,0.1125,0.1126,0,0,0,0,0,0.1062,0.1072,0.1069,0.107,0.1077,0.1083,0.1084,0.1081,0.1076,0.1081,0.1081,0.1078,0.1093,0.1088,0.109,0.1097,0.1113,0.1114,0.1115,0.1122,0.1124,0.1126,0,0,0,0,0,0,0.1074,0.1072,0.1069,0.108,0.1081,0.1081,0.1088,0.1084,0.1088,0.1087,0.1085,0.1085,0.1095,0.1097,0.1091,0.1108,0.1102,0.1103,0.1107,0.1109,0.1111,0.111,0.1084,0,0,0,0,0,0.1078,0.1082,0.1081,0.1091,0.1091,0.1089,0.1092,0.1089,0.1092,0.1093,0.1094,0.1097,0.1102,0.1106,0.1111,0.1123,0.1123,0.1128,0.113,0.1131,0.1133,0.1138,0.114,0.1118,0.1118,0.1118,0,0,0.1086,0.1086,0.1089,0.1093,0.1094,0.1099,0.109,0.1096,0.11,0.1094,0.1102,0.1103,0.1106,0.1117,0.1121,0.1118,0.1138,0.1132,0.1133,0.1134,0.1139,0.1141,0.1143,0.1119,0.1119,0.1119,0,0,0.1104,0.1104,0.1111,0.1112,0.1113,0.1111,0.1112,0.1112,0.1112,0.112,0.1115,0.112,0.1129,0.1131,0.1133,0.1149,0.1146,0.1151,0.1159,0.1164,0.1166,0.1167,0.1172,0.1174,0.1152,0.1152,0.1152,0,0.1115,0.1121,0.1116,0.1122,0.1123,0.1116,0.1123,0.1124,0.1127,0.1129,0.1125,0.1135,0.1136,0.1146,0.115,0.1152,0.1154,0.1151,0.1166,0.1167,0.1169,0.1173,0.1175,0.1152,0.1152,0.1152,0.1152,0,0.1134,0.1138,0.1144,0.1145,0.1147,0.1153,0.1149,0.1152,0.1149,0.1148,0.1155,0.1156,0.1161,0.1163,0.1161,0.1172,0.117,0.1166,0.116,0.1171,0.1175,0.1177,0.1153,0.1153,0.1153,0.1153,0,0,0.1161,0.1157,0.1159,0.1159,0.1158,0.1161,0.1167,0.117,0.1172,0.1173,0.1178,0.1185,0.118,0.1183,0.118,0.1185,0.1195,0.118,0.118,0.1182,0.1207,0.121,0.1212,0.1193,0.1193,0.1194,0.1207,0,0.1178,0.1186,0.1181,0.1191,0.1194,0.1186,0.1191,0.1191,0.1189,0.1192,0.1191,0.1195,0.1189,0.119,0.1194,0.1193,0.12,0.1192,0.1198,0.1198,0.1197,0.1215,0.1218,0.1231,0.1208,0.1209,0.1209,0,0.1199,0.1199,0.1209,0.1205,0.1207,0.1211,0.1212,0.1215,0.1214,0.1212,0.1214,0.121,0.1215,0.1208,0.1215,0.121,0.1211,0.1211,0.1211,0.1212,0.1204,0.1216,0.1235,0.1236,0.1211,0.1211,0.1211,0,0.1217,0.122,0.1226,0.1226,0.1222,0.1225,0.1224,0.1222,0.1224,0.1225,0.1225,0.1227,0.1229,0.1231,0.1227,0.1222,0.1234,0.1227,0.1233,0.1233,0.1237,0.1237,0.1256,0.1238,0.1238,0.1238,0.1238,0,0.1237,0.1243,0.1233,0.1237,0.1243,0.1236,0.1243,0.1241,0.1239,0.1243,0.1236,0.1239,0.1234,0.1237,0.1235,0.124,0.1241,0.124,0.1239,0.1241,0.1241,0.1242,0.1241,0.1238,0.1238,0.1238,0.1238,0,0.1259,0.1253,0.1258,0.1253,0.1252,0.1256,0.1252,0.1255,0.1252,0.1256,0.1256,0.1252,0.1254,0.125,0.1254,0.1252,0.1259,0.1257,0.1259,0.1258,0.1264,0.1264,0.1286,0.1288,0.1268,0.1268,0.1268,0,0.1271,0.1275,0.127,0.127,0.1269,0.1271,0.1271,0.1264,0.1265,0.1263,0.1267,0.1268,0.1269,0.1273,0.1271,0.1273,0.1271,0.1278,0.1271,0.1271,0.127,0.127,0.127,0.128,0.128,0.128,0.128,0,0.1294,0.1291,0.1291,0.129,0.129,0.1289,0.1288,0.1289,0.1281,0.1283,0.1284,0.1285,0.1286,0.1287,0.1288,0.1287,0.1283,0.1282,0.1284,0.1285,0.1286,0.1285,0.1263,0.1282,0.1282,0.1282,0.1282,0.1282,0.1312,0.1314,0.131,0.131,0.1308,0.1306,0.1308,0.1304,0.1305,0.1304,0.13,0.1302,0.13,0.13,0.13,0.1301,0.1298,0.13,0.1301,0.1302,0.1302,0.1285,0.1302,0.1301,0.1301,0.1301,0.1301,0,0.1334,0.133,0.133,0.1327,0.1327,0.1321,0.1318,0.1319,0.132,0.1318,0.1318,0.1319,0.132,0.1316,0.1317,0.1319,0.1316,0.1319,0.1319,0.1319,0.1305,0.1304,0.1321,0.1321,0.1321,0.1321,0.1321,0.1321,0.1346,0.1349,0.1344,0.1346,0.1343,0.1343,0.1342,0.1341,0.1338,0.1339,0.1339,0.1336,0.1333,0.1333,0.1333,0.1332,0.1333,0.1336,0.1334,0.1322,0.132,0.1318,0.1317,0.1336,0.1336,0.1347,0.1347,0.1347]},{"header":{"parameterUnit":"m.s-1","parameterCategory":1,"la1":30.2991,"la2":30.254,"lo1":-89.0895,"lo2":-89.0444,"dy":0.0017,"dx":0.0017,"nx":28,"ny":28,"refTime":"2025-03-12T09:00:00:Z","depth":0,"parameterNumber":3,"parameterNumberName":"V-component_of_WINDS"},"data":[0,0,0,0,0,0,0,0,0,0,0,0,0,0,0,0,0,0,0,0,0,0,0,0,0,0,0,0,0,0,0,0,0,0,0,0,0,0,0,0,0,0,0,0,0,0,0,0,0,0,0,0,0,0,0,0,0,0,2.4392,2.4392,0,2.4382,2.4382,2.4382,2.4398,2.4398,2.4399,2.4399,2.4387,2.4387,2.4386,0,0,0,0,0,0,0,0,0,0,0,0,0,2.4422,2.4422,2.4392,2.4392,2.4392,2.4382,2.4382,2.4382,2.4398,2.4398,2.4399,2.44,2.4388,2.4387,2.4386,0,0,0,0,0,0,0,0,0,0,0,0,0,2.4411,2.4422,2.4392,2.4398,2.4399,2.4382,2.4382,2.4382,2.4397,2.4398,2.4399,2.44,2.4388,2.4387,2.4386,2.4361,0,0,2.4382,2.4381,0,0,0,0,0,0,0,0,2.4411,2.4409,2.4397,2.4398,2.4398,2.4392,2.4388,2.4375,2.4397,2.4398,2.4399,2.44,2.4388,2.4387,2.4383,2.4361,2.436,2.4382,2.4381,2.438,2.438,0,0,0,0,0,0,0,2.4412,2.441,2.4388,2.4397,2.4398,2.4401,2.44,2.4386,2.4388,2.4398,2.4399,2.4398,2.4388,2.4384,2.4383,2.436,2.4382,2.4381,2.438,2.4379,2.4318,2.4317,0,0,0,0,0,0,2.4412,2.441,2.4388,2.4388,2.4407,2.44,2.4399,2.4393,2.4389,2.4389,2.4397,2.4399,2.4386,2.4384,2.4383,2.4355,2.438,2.4379,2.4378,2.4319,2.4318,2.4317,0,0,0,0,0,0,2.4413,2.441,2.4389,2.4399,2.4397,2.4399,2.4392,2.4393,2.4388,2.4388,2.4388,2.4393,2.4387,2.4384,2.4367,2.4354,2.4379,2.4377,2.432,2.4319,2.4318,2.4298,0,0,0,0,0,0,2.4414,2.441,2.4401,2.4399,2.4396,2.4373,2.4391,2.4392,2.4387,2.4388,2.4384,2.4384,2.4387,2.4369,2.4366,2.4353,2.4377,2.4321,2.4319,2.4318,2.4299,2.4296,2.4293,0,0,0,0,0,2.4415,2.4396,2.4401,2.4398,2.4385,2.4372,2.4371,2.4375,2.4385,2.4376,2.4376,2.4384,2.4356,2.4367,2.4363,2.435,2.4322,2.432,2.4318,2.4301,2.4297,2.4293,0,0,0,0,0,0,2.4395,2.4395,2.4401,2.4381,2.4377,2.4375,2.4364,2.4371,2.4363,2.4365,2.437,2.4369,2.4351,2.4349,2.436,2.4327,2.4341,2.4338,2.4329,2.4325,2.4321,2.4322,2.4375,0,0,0,0,0,2.4389,2.4379,2.4379,2.4361,2.4359,2.4362,2.4356,2.4361,2.4356,2.4354,2.4353,2.4348,2.4338,2.4331,2.4322,2.43,2.4299,2.4289,2.4286,2.4283,2.428,2.4269,2.4264,2.4311,2.4311,2.4311,0,0,2.4375,2.4374,2.4367,2.4357,2.4355,2.4344,2.436,2.4348,2.434,2.4352,2.4336,2.4335,2.4329,2.4309,2.43,2.4307,2.4268,2.428,2.4278,2.4277,2.4266,2.4262,2.4258,2.4309,2.4309,2.431,0,0,2.4344,2.4342,2.4327,2.4325,2.4321,2.4323,2.4319,2.4317,2.4317,2.4301,2.431,2.43,2.4283,2.428,2.4275,2.4244,2.4251,2.4241,2.4223,2.4212,2.4208,2.4205,2.4194,2.419,2.4239,2.4239,2.4239,0,2.4327,2.4312,2.4319,2.4306,2.4302,2.4313,2.4298,2.4295,2.4288,2.4284,2.4292,2.4272,2.4269,2.4248,2.4241,2.4237,2.4233,2.4241,2.4209,2.4205,2.4202,2.4192,2.4188,2.4237,2.4238,2.4238,2.4238,0,2.4292,2.4281,2.4269,2.4263,2.4257,2.4244,2.4248,2.4241,2.4246,2.4247,2.4231,2.4228,2.4219,2.4215,2.4219,2.4195,2.4199,2.4208,2.4222,2.4197,2.4187,2.4183,2.4236,2.4236,2.4237,2.4237,0,0,2.4247,2.4246,2.4242,2.4239,2.4236,2.4228,2.4215,2.4207,2.4201,2.4196,2.4185,2.4171,2.4179,2.4174,2.4178,2.4168,2.4144,2.4178,2.4178,2.4172,2.4118,2.4111,2.4107,2.4149,2.4149,2.4148,2.4118,0,2.4217,2.4195,2.4201,2.4179,2.4169,2.4181,2.4169,2.4166,2.4167,2.4159,2.4159,2.4149,2.4161,2.4158,2.4149,2.4149,2.4134,2.4151,2.4139,2.4138,2.4139,2.4102,2.4095,2.4067,2.4115,2.4114,2.4114,0,2.4178,2.4173,2.415,2.415,2.4146,2.4135,2.4129,2.4121,2.4117,2.4119,2.4114,2.412,2.4107,2.4122,2.4104,2.4116,2.4111,2.411,2.411,2.4108,2.4124,2.4099,2.4058,2.4054,2.4108,2.4108,2.4109,0,2.4149,2.4136,2.412,2.4118,2.4117,2.4109,2.4108,2.4106,2.4101,2.4095,2.4092,2.4084,2.408,2.4074,2.4078,2.4088,2.406,2.4074,2.406,2.406,2.4053,2.4054,2.4011,2.405,2.4051,2.4051,2.4051,0,2.4114,2.41,2.4107,2.4098,2.4082,2.4089,2.4073,2.4073,2.4071,2.4062,2.4071,2.4062,2.4068,2.406,2.4063,2.4047,2.4045,2.4046,2.4047,2.4045,2.4045,2.4042,2.4044,2.4049,2.405,2.405,2.405,0,2.4078,2.4083,2.4067,2.4067,2.4067,2.4055,2.4056,2.4047,2.4049,2.4037,2.4035,2.4038,2.4028,2.4032,2.4022,2.4024,2.4005,2.4008,2.4006,2.4007,2.3992,2.3994,2.3946,2.394,2.3984,2.3983,2.3983,0,2.4056,2.4045,2.4045,2.4039,2.4038,2.4029,2.4025,2.4031,2.4026,2.4022,2.4014,2.4005,2.3999,2.3983,2.3984,2.3976,2.398,2.3963,2.3978,2.3977,2.3979,2.398,2.3979,2.396,2.396,2.3959,2.3959,0,2.4015,2.4018,2.4011,2.4006,2.4,2.3995,2.3992,2.3987,2.3993,2.3987,2.3978,2.3973,2.3963,2.3954,2.3948,2.3946,2.3954,2.3954,2.3951,2.3949,2.3948,2.3948,2.3997,2.3955,2.3956,2.3956,2.3956,2.3956,2.3985,2.3977,2.3975,2.3967,2.3966,2.3962,2.3954,2.3956,2.3948,2.3941,2.3946,2.3935,2.3932,2.3924,2.3922,2.3914,2.392,2.3915,2.3913,2.3912,2.391,2.3949,2.3913,2.3913,2.3913,2.3913,2.3913,0,2.3945,2.3946,2.3938,2.3933,2.3927,2.3936,2.3932,2.3926,2.3917,2.3915,2.3908,2.3898,2.389,2.3891,2.3884,2.3877,2.388,2.3875,2.3875,2.3875,2.3905,2.3909,2.3872,2.3872,2.3872,2.3872,2.3872,2.3872,2.3924,2.391,2.3913,2.3898,2.3898,2.3888,2.3885,2.3882,2.388,2.3869,2.3862,2.3863,2.3862,2.3855,2.3848,2.3848,2.3845,2.3839,2.384,2.3868,2.3872,2.3876,2.388,2.3838,2.3838,2.3811,2.3811,2.381]}]]